Total_Precipitation_Accumulation
0.01 0.00 0.01 0.02 0.03 0.02 0.01 0.02 0.02 0.01 0.00 0.00 0.00 0.00 0.00 0.00 0.00 0.00 0.00 0.00 0.00 0.00 0.00 0.00 0.00 0.00 0.00 0.00 0.00 0.00 0.00 0.00 0.00 0.01 0.00 0.01 0.08 0.12 0.28 0.16 0.21 0.15 0.04 0.03 0.08
0.07 0.02 0.01 0.01 0.01 0.00 0.01 0.02 0.01 0.00 0.01 0.01 0.01 0.00 0.00 0.00 0.00 0.00 0.01 0.01 0.00 0.00 0.00 0.00 0.00 0.00 0.00 0.00 0.00 0.00 0.00 0.01 0.00 0.01 0.00 0.01 0.03 0.04 0.17 0.10 0.12 0.19 0.04 0.04 0.03
0.07 0.02 0.01 0.01 0.01 0.01 0.01 0.01 0.00 0.00 0.01 0.01 0.01 0.00 0.00 0.00 0.00 0.00 0.00 0.02 0.01 0.01 0.01 0.00 0.00 0.00 0.00 0.01 0.00 0.00 0.00 0.02 0.01 0.01 0.01 0.01 0.02 0.03 0.11 0.18 0.22 0.18 0.04 0.07 0.07
0.06 0.07 0.05 0.03 0.01 0.01 0.01 0.00 0.00 0.00 0.01 0.01 0.02 0.01 0.00 0.00 0.00 0.00 0.00 0.01 0.02 0.00 0.01 0.01 0.01 0.01 0.00 0.00 0.02 0.01 0.01 0.02 0.01 0.02 0.01 0.01 0.01 0.02 0.15 0.30 0.24 0.32 0.11 0.10 0.05
0.07 0.05 0.05 0.06 0.04 0.02 0.00 0.00 0.00 0.00 0.00 0.01 0.01 0.02 0.01 0.00 0.00 0.00 0.00 0.00 0.01 0.00 0.01 0.01 0.02 0.02 0.02 0.01 0.01 0.02 0.04 0.04 0.01 0.02 0.03 0.00 0.00 0.00 0.03 0.10 0.14 0.25 0.17 0.25 0.23
0.02 0.02 0.02 0.02 0.01 0.00 0.00 0.00 0.00 0.00 0.00 0.01 0.01 0.01 0.00 0.00 0.00 0.00 0.00 0.00 0.00 0.01 0.01 0.01 0.02 0.03 0.02 0.02 0.02 0.01 0.02 0.02 0.01 0.02 0.03 0.01 0.00 0.00 0.00 0.04 0.07 0.17 0.16 0.12 0.09
0.02 0.02 0.01 0.01 0.00 0.00 0.00 0.00 0.00 0.00 0.01 0.01 0.01 0.01 0.00 0.00 0.00 0.00 0.00 0.00 0.00 0.00 0.01 0.00 0.01 0.04 0.04 0.03 0.01 0.02 0.02 0.02 0.02 0.02 0.05 0.05 0.01 0.00 0.00 0.00 0.03 0.07 0.11 0.09 0.15
0.01 0.01 0.00 0.00 0.00 0.00 0.00 0.00 0.00 0.00 0.00 0.01 0.01 0.00 0.00 0.00 0.00 0.00 0.00 0.00 0.00 0.00 0.00 0.01 0.01 0.02 0.04 0.03 0.03 0.04 0.03 0.03 0.02 0.01 0.02 0.06 0.03 0.02 0.01 0.01 0.02 0.04 0.05 0.08 0.12
0.01 0.01 0.00 0.00 0.00 0.00 0.00 0.00 0.00 0.00 0.00 0.00 0.00 0.00 0.00 0.00 0.00 0.00 0.00 0.00 0.00 0.00 0.00 0.00 0.00 0.01 0.01 0.02 0.03 0.02 0.03 0.05 0.02 0.01 0.03 0.06 0.04 0.02 0.03 0.03 0.05 0.07 0.05 0.05 0.11
0.02 0.01 0.01 0.01 0.01 0.01 0.00 0.00 0.00 0.00 0.00 0.00 0.00 0.00 0.00 0.00 0.00 0.00 0.00 0.00 0.00 0.00 0.00 0.00 0.00 0.01 0.00 0.00 0.02 0.02 0.03 0.04 0.03 0.03 0.04 0.05 0.09 0.10 0.08 0.05 0.06 0.07 0.08 0.04 0.03
0.02 0.02 0.02 0.01 0.01 0.01 0.00 0.00 0.00 0.00 0.00 0.00 0.00 0.00 0.00 0.00 0.00 0.00 0.00 0.00 0.00 0.00 0.01 0.00 0.00 0.02 0.04 0.02 0.02 0.02 0.03 0.03 0.04 0.02 0.05 0.08 0.08 0.10 0.10 0.06 0.02 0.02 0.03 0.03 0.00
0.01 0.01 0.01 0.01 0.01 0.01 0.00 0.00 0.00 0.00 0.00 0.00 0.00 0.00 0.00 0.00 0.00 0.00 0.01 0.01 0.00 0.01 0.02 0.02 0.00 0.01 0.01 0.02 0.02 0.02 0.03 0.06 0.06 0.01 0.02 0.03 0.05 0.05 0.02 0.03 0.03 0.02 0.02 0.04 0.03
0.01 0.00 0.01 0.01 0.00 0.00 0.01 0.02 0.01 0.01 0.01 0.01 0.01 0.00 0.00 0.03 0.01 0.00 0.04 0.04 0.04 0.04 0.08 0.05 0.03 0.04 0.05 0.07 0.07 0.03 0.05 0.06 0.06 0.07 0.03 0.01 0.00 0.00 0.00 0.00 0.00 0.01 0.01 0.04 0.11
0.00 0.00 0.01 0.01 0.00 0.02 0.06 0.02 0.02 0.01 0.09 0.04 0.03 0.02 0.04 0.12 0.01 0.00 0.04 0.07 0.07 0.07 0.13 0.10 0.07 0.07 0.10 0.10 0.16 0.10 0.07 0.13 0.13 0.23 0.14 0.02 0.03 0.00 0.00 0.00 0.00 0.00 0.01 0.04 0.08
0.00 0.00 0.01 0.01 0.02 0.10 0.04 0.00 0.01 0.04 0.25 0.03 0.02 0.02 0.03 0.13 0.05 0.01 0.04 0.04 0.08 0.12 0.14 0.17 0.11 0.16 0.12 0.08 0.12 0.11 0.13 0.21 0.26 0.25 0.22 0.14 0.11 0.00 0.00 0.01 0.00 0.00 0.00 0.02 0.04
0.00 0.00 0.01 0.01 0.08 0.03 0.00 0.00 0.04 0.20 0.14 0.03 0.02 0.03 0.04 0.13 0.06 0.02 0.03 0.05 0.08 0.09 0.20 0.18 0.16 0.22 0.12 0.12 0.11 0.24 0.22 0.41 0.37 0.32 0.18 0.27 0.18 0.06 0.10 0.32 0.13 0.04 0.03 0.03 0.05
0.00 0.00 0.00 0.00 0.03 0.00 0.00 0.01 0.09 0.10 0.02 0.02 0.02 0.04 0.05 0.10 0.04 0.00 0.01 0.05 0.12 0.24 0.31 0.18 0.14 0.16 0.16 0.18 0.14 0.24 0.40 0.81 0.67 0.51 0.21 0.31 0.30 0.27 0.22 0.57 0.40 0.24 0.16 0.19 0.13
0.00 0.00 0.00 0.00 0.00 0.00 0.00 0.00 0.04 0.03 0.01 0.01 0.01 0.01 0.02 0.03 0.01 0.01 0.01 0.06 0.04 0.16 0.29 0.18 0.16 0.09 0.12 0.16 0.15 0.16 0.36 0.98 1.12 0.59 0.72 0.75 0.71 0.58 0.34 0.27 0.44 0.46 0.43 0.39 0.36
0.00 0.00 0.00 0.00 0.00 0.00 0.00 0.00 0.01 0.00 0.00 0.02 0.05 0.02 0.04 0.01 0.01 0.01 0.02 0.02 0.02 0.06 0.17 0.26 0.31 0.02 0.06 0.06 0.08 0.13 0.22 0.49 0.74 0.56 0.62 0.68 0.57 0.43 0.40 0.07 0.39 0.51 0.67 0.57 0.50
0.00 0.00 0.00 0.00 0.00 0.00 0.00 0.00 0.00 0.00 0.00 0.01 0.08 0.06 0.11 0.01 0.01 0.01 0.01 0.02 0.02 0.00 0.01 0.09 0.20 0.02 0.10 0.02 0.02 0.05 0.09 0.23 0.74 0.82 0.36 0.12 0.03 0.07 0.30 0.20 0.37 0.32 0.48 0.74 0.63
0.00 0.00 0.00 0.00 0.00 0.00 0.00 0.00 0.00 0.00 0.00 0.00 0.00 0.00 0.00 0.01 0.01 0.01 0.01 0.01 0.00 0.01 0.01 0.00 0.04 0.04 0.12 0.03 0.02 0.01 0.02 0.08 0.29 0.37 0.32 0.13 0.01 0.00 0.09 0.21 0.13 0.17 0.38 0.57 0.55
0.00 0.00 0.00 0.00 0.00 0.00 0.00 0.00 0.00 0.00 0.00 0.00 0.00 0.00 0.00 0.00 0.00 0.00 0.00 0.01 0.00 0.00 0.01 0.02 0.02 0.05 0.08 0.01 0.00 0.00 0.01 0.08 0.39 0.43 0.37 0.24 0.14 0.00 0.00 0.03 0.06 0.05 0.04 0.14 0.19
0.00 0.00 0.00 0.00 0.00 0.00 0.00 0.00 0.00 0.00 0.00 0.00 0.00 0.00 0.00 0.00 0.00 0.00 0.00 0.00 0.00 0.00 0.02 0.08 0.09 0.08 0.03 0.02 0.02 0.00 0.01 0.04 0.17 0.35 0.31 0.30 0.11 0.00 0.00 0.00 0.00 0.00 0.00 0.02 0.05
0.00 0.00 0.00 0.00 0.00 0.00 0.00 0.00 0.00 0.00 0.00 0.00 0.00 0.00 0.00 0.00 0.00 0.01 0.01 0.01 0.00 0.00 0.02 0.08 0.12 0.15 0.21 0.16 0.11 0.07 0.02 0.01 0.09 0.27 0.15 0.10 0.04 0.00 0.00 0.00 0.00 0.00 0.00 0.00 0.00
0.00 0.00 0.00 0.00 0.00 0.00 0.00 0.00 0.00 0.00 0.00 0.00 0.00 0.00 0.00 0.00 0.01 0.01 0.01 0.01 0.00 0.00 0.02 0.05 0.12 0.09 0.10 0.05 0.03 0.04 0.04 0.02 0.04 0.09 0.13 0.09 0.02 0.00 0.00 0.00 0.00 0.00 0.00 0.00 0.00
0.00 0.00 0.00 0.00 0.00 0.00 0.00 0.00 0.00 0.00 0.00 0.00 0.00 0.00 0.00 0.00 0.00 0.00 0.01 0.02 0.04 0.01 0.02 0.07 0.23 0.16 0.13 0.06 0.05 0.06 0.06 0.04 0.03 0.02 0.03 0.06 0.06 0.03 0.02 0.00 0.00 0.00 0.00 0.00 0.00
0.10 0.00 0.00 0.00 0.00 0.00 0.00 0.00 0.00 0.00 0.00 0.00 0.00 0.00 0.00 0.00 0.00 0.00 0.00 0.00 0.00 0.00 0.01 0.04 0.19 0.28 0.29 0.10 0.10 0.12 0.04 0.02 0.02 0.03 0.05 0.10 0.15 0.10 0.07 0.02 0.00 0.00 0.00 0.00 0.00